Weather History for Wink, TX

Change the Weather History Date:

Wednesday, January 23, 2013

  Actual Average Record
Temperature  
Mean Temperature 52 °F -  
Max Temperature 75 °F 61 °F 83 °F (1950)
Min Temperature 30 °F 29 °F 7 °F (1940)
Degree Days  
Heating Degree Days 12    
Growing Degree Days 2 (Base 50)    
Moisture  
Dew Point 31 °F    
Average Humidity 73    
Maximum Humidity 100    
Minimum Humidity 12    
Precipitation  
Precipitation 0.00 in - - ()
Sea Level Pressure  
Sea Level Pressure 30.18 in    
Wind  
Wind Speed 5 mph (NW)    
Max Wind Speed 12 mph    
Max Gust Speed -    
Visibility 5 miles    
Events Fog    
Averages and records for this station are not official NWS values.
T = Trace of Precipitation, MM = Missing Value Source: NWS Daily Summary

Daily Weather History Graph

Daily Weather History Graph

Search for Another Location

Airport:

Trip Planner

Search our weather history database for the weather conditions in past years. The results will help you decide how hot, cold, wet, or windy it might be!

Date:

Astronomy

Jan. 23, 2013 Rise Set
Actual Time 7:50 AM CST 6:19 PM CST
Civil Twilight 7:24 AM CST 6:45 PM CST
Nautical Twilight 6:55 AM CST 7:14 PM CST
Astronomical Twilight 6:26 AM CST 7:43 PM CST
Moon 3:34 PM CST (1/23) 5:01 AM CST (1/23)
Length of Visible Light 11h 20m
Length of Day
10h 28m
Waxing Gibbous, 89% of the Moon is Illuminated
Jan 23
Waxing Gibbous
Jan 26
Full
Feb 3
Last Quarter
Feb 10
New
Feb 17
First Quarter

Hourly Weather History & Observations

Time (CST) Temp. Windchill Dew Point Humidity Pressure Visibility Wind Dir Wind Speed Gust Speed Precip Events Conditions
12:53 AM 37.9 °F 34.4 °F 36.0 °F 93% 30.14 in 10.0 mi NE 4.6 mph - N/A   Clear
1:53 AM 39.9 °F 35.1 °F 39.0 °F 97% 30.14 in 4.0 mi ESE 6.9 mph - N/A   Clear
2:19 AM 39.2 °F 37.0 °F 39.2 °F 100% 30.18 in 2.0 mi ESE 3.5 mph - N/A   Clear
2:25 AM 39.2 °F 35.9 °F 39.2 °F 100% 30.18 in 0.8 mi ESE 4.6 mph - N/A   Clear
2:49 AM 41.0 °F 36.4 °F 41.0 °F 100% 30.18 in 0.5 mi SE 6.9 mph - N/A Fog Fog
2:53 AM 41.0 °F 36.4 °F 41.0 °F 100% 30.13 in 0.2 mi SE 6.9 mph - N/A Fog Fog
3:53 AM 37.0 °F - 37.0 °F 100% 30.13 in 0.2 mi Calm Calm - N/A Fog Fog
4:15 AM 35.6 °F - 35.6 °F 100% 30.18 in 0.5 mi Calm Calm - N/A Fog Fog
4:27 AM 32.0 °F 28.7 °F 32.0 °F 100% 30.19 in 0.2 mi North 3.5 mph - N/A Fog Fog
4:53 AM 33.1 °F 28.7 °F 33.1 °F 100% 30.15 in 0.5 mi North 4.6 mph - N/A Fog Fog
5:07 AM 33.8 °F 29.6 °F 33.8 °F 100% 30.20 in 0.2 mi North 4.6 mph - N/A Fog Fog
5:53 AM 32.0 °F - 30.9 °F 96% 30.17 in 0.2 mi Calm Calm - N/A Fog Fog
6:09 AM 32.0 °F 28.7 °F 30.2 °F 93% 30.20 in 0.8 mi NNW 3.5 mph - N/A   Mist
6:17 AM 30.2 °F 25.4 °F 30.2 °F 100% 30.21 in 1.5 mi NNW 4.6 mph - N/A   Overcast
6:30 AM 30.2 °F 25.4 °F 30.2 °F 100% 30.21 in 0.2 mi NNW 4.6 mph - N/A Fog Light Freezing Fog
6:53 AM 32.0 °F 27.5 °F 32.0 °F 100% 30.20 in 0.2 mi North 4.6 mph - N/A Fog Fog
7:25 AM 30.2 °F 24.3 °F 30.2 °F 100% 30.24 in 0.5 mi North 5.8 mph - N/A Fog Light Freezing Fog
7:53 AM 30.9 °F 26.2 °F 30.9 °F 100% 30.23 in 0.5 mi North 4.6 mph - N/A Fog Light Freezing Fog
8:03 AM 30.2 °F 25.4 °F 30.2 °F 100% 30.24 in 0.2 mi North 4.6 mph - N/A Fog Light Freezing Fog
8:53 AM 32.0 °F 27.5 °F 32.0 °F 100% 30.25 in 0.2 mi NNW 4.6 mph - N/A Fog Fog
9:22 AM 35.6 °F 30.7 °F 35.6 °F 100% 30.27 in 1.0 mi North 5.8 mph - N/A   Mostly Cloudy
9:28 AM 35.6 °F 32.8 °F 35.6 °F 100% 30.27 in 5.0 mi North 3.5 mph - N/A   Scattered Clouds
9:53 AM 37.9 °F - 37.9 °F 100% 30.25 in 10.0 mi Calm Calm - N/A   Clear
10:53 AM 48.0 °F - 39.9 °F 74% 30.26 in 10.0 mi Calm Calm - N/A   Clear
11:53 AM 57.9 °F - 35.1 °F 42% 30.24 in 10.0 mi Calm Calm - N/A   Clear
12:53 PM 66.0 °F - 25.0 °F 21% 30.19 in 10.0 mi West 9.2 mph - N/A   Clear
1:53 PM 71.1 °F - 17.1 °F 13% 30.15 in 10.0 mi West 10.4 mph - N/A   Clear
2:53 PM 75.0 °F - 21.9 °F 14% 30.11 in 10.0 mi SW 10.4 mph - N/A   Clear
3:53 PM 75.0 °F - 24.1 °F 15% 30.10 in 10.0 mi SSW 9.2 mph - N/A   Clear
4:53 PM 75.9 °F - 23.0 °F 14% 30.10 in 10.0 mi WSW 10.4 mph - N/A   Clear
5:53 PM 73.0 °F - 17.1 °F 12% 30.11 in 10.0 mi WSW 11.5 mph - N/A   Clear
6:53 PM 63.0 °F - 19.0 °F 18% 30.13 in 10.0 mi SW 6.9 mph - N/A   Clear
7:53 PM 55.0 °F - 21.9 °F 28% 30.15 in 10.0 mi SW 8.1 mph - N/A   Clear
8:53 PM 55.0 °F - 24.1 °F 30% 30.15 in 10.0 mi WSW 8.1 mph - N/A   Clear
9:53 PM 51.1 °F - 26.1 °F 38% 30.16 in 10.0 mi SW 8.1 mph - N/A   Clear
10:53 PM 48.0 °F - 26.1 °F 42% 30.15 in 10.0 mi SSE 3.5 mph - N/A   Clear
11:53 PM 46.0 °F 41.9 °F 28.9 °F 51% 30.15 in 10.0 mi South 8.1 mph - N/A   Clear